[[{"header":{"parameterUnit":"m.s-1","parameterCategory":1,"la1":30.2991,"la2":30.254,"lo1":-89.0895,"lo2":-89.0444,"dy":0.0017,"dx":0.0017,"nx":28,"ny":28,"refTime":"2024-06-13T21:00:00:Z","depth":0,"parameterNumber":2,"parameterNumberName":"U-component_of_WINDS"},"data":[0,0,0,0,0,0,0,0,0,0,0,0,0,0,0,0,0,0,0,0,0,0,0,0,0,0,0,0,0,0,0,0,0,0,0,0,0,0,0,0,0,0,0,0,0,0,0,0,0,0,0,0,0,0,0,0,0,0,-0.3725,-0.3725,0,-0.3748,-0.3748,-0.3749,-0.3743,-0.3743,-0.3742,-0.3742,-0.3767,-0.3768,-0.3769,0,0,0,0,0,0,0,0,0,0,0,0,0,-0.3677,-0.3678,-0.3725,-0.3725,-0.3726,-0.3748,-0.3748,-0.3749,-0.3743,-0.3743,-0.3742,-0.3742,-0.3766,-0.3767,-0.3769,0,0,0,0,0,0,0,0,0,0,0,0,0,-0.3699,-0.3678,-0.3725,-0.3726,-0.3726,-0.3748,-0.3748,-0.3749,-0.3744,-0.3743,-0.3742,-0.3742,-0.3766,-0.3767,-0.3769,-0.3792,0,0,-0.3774,-0.3774,0,0,0,0,0,0,0,0,-0.3698,-0.3701,-0.3725,-0.3726,-0.3726,-0.3742,-0.374,-0.3763,-0.3744,-0.3737,-0.3742,-0.3741,-0.3759,-0.3761,-0.3767,-0.3793,-0.3794,-0.3774,-0.3775,-0.3776,-0.3776,0,0,0,0,0,0,0,-0.3696,-0.37,-0.3734,-0.3726,-0.3726,-0.3725,-0.3727,-0.3745,-0.3751,-0.3737,-0.3737,-0.374,-0.3759,-0.3765,-0.3767,-0.3795,-0.3774,-0.3775,-0.3776,-0.3777,-0.3841,-0.3842,0,0,0,0,0,0,-0.3694,-0.3698,-0.3733,-0.3735,-0.371,-0.3726,-0.3729,-0.3738,-0.3751,-0.3753,-0.374,-0.374,-0.3763,-0.3766,-0.3768,-0.3796,-0.3776,-0.3777,-0.3778,-0.384,-0.3841,-0.3842,0,0,0,0,0,0,-0.3693,-0.3697,-0.3733,-0.3717,-0.3721,-0.3728,-0.3738,-0.3738,-0.3745,-0.3753,-0.3755,-0.3746,-0.3763,-0.3766,-0.3786,-0.3797,-0.3778,-0.3779,-0.3839,-0.3841,-0.3842,-0.3852,0,0,0,0,0,0,-0.3692,-0.3697,-0.3706,-0.3717,-0.3722,-0.375,-0.3738,-0.3739,-0.3747,-0.3747,-0.3759,-0.376,-0.3762,-0.3784,-0.3788,-0.3799,-0.378,-0.3838,-0.384,-0.3841,-0.3851,-0.3854,-0.3856,0,0,0,0,0,-0.369,-0.3708,-0.3706,-0.371,-0.3733,-0.375,-0.3753,-0.3755,-0.3748,-0.3757,-0.3763,-0.376,-0.3795,-0.3786,-0.379,-0.3802,-0.3838,-0.3839,-0.3841,-0.385,-0.3853,-0.3856,0,0,0,0,0,0,-0.3698,-0.371,-0.3708,-0.373,-0.3739,-0.3749,-0.3761,-0.3759,-0.3771,-0.3769,-0.3772,-0.3774,-0.3795,-0.38,-0.379,-0.3825,-0.3815,-0.3818,-0.3821,-0.3824,-0.3826,-0.3825,-0.3782,0,0,0,0,0,-0.3703,-0.3716,-0.3725,-0.3744,-0.3748,-0.3754,-0.3762,-0.3762,-0.3772,-0.3776,-0.3783,-0.3793,-0.3807,-0.3816,-0.3829,-0.3852,-0.3855,-0.3862,-0.3865,-0.3867,-0.3869,-0.3882,-0.3885,-0.3847,-0.3847,-0.3847,0,0,-0.3712,-0.372,-0.3728,-0.3745,-0.3753,-0.3767,-0.3757,-0.3772,-0.3782,-0.3779,-0.3798,-0.3803,-0.3815,-0.3837,-0.3847,-0.3842,-0.388,-0.3869,-0.387,-0.3872,-0.3884,-0.3887,-0.3891,-0.3849,-0.3848,-0.3848,0,0,-0.3736,-0.3743,-0.3759,-0.3767,-0.3778,-0.3781,-0.3785,-0.3796,-0.3799,-0.3819,-0.3816,-0.3829,-0.3852,-0.386,-0.3867,-0.3894,-0.3891,-0.3898,-0.3911,-0.3923,-0.3926,-0.3929,-0.3939,-0.3942,-0.39,-0.39,-0.39,0,-0.3746,-0.3766,-0.3768,-0.3783,-0.3791,-0.3788,-0.3804,-0.3812,-0.3827,-0.3832,-0.3827,-0.3856,-0.3863,-0.3887,-0.3893,-0.3899,-0.3904,-0.3897,-0.3926,-0.3928,-0.3931,-0.394,-0.3944,-0.3901,-0.3901,-0.3901,-0.3901,0,-0.3778,-0.3793,-0.3804,-0.3819,-0.3828,-0.3844,-0.3848,-0.3857,-0.3857,-0.3861,-0.388,-0.3889,-0.3904,-0.3909,-0.391,-0.3933,-0.393,-0.3925,-0.3915,-0.3935,-0.3944,-0.3948,-0.3902,-0.3902,-0.3902,-0.3901,0,0,-0.3809,-0.3823,-0.3827,-0.3834,-0.3846,-0.3857,-0.3873,-0.3887,-0.3894,-0.3905,-0.3918,-0.3938,-0.3933,-0.3941,-0.3942,-0.3953,-0.3974,-0.3947,-0.3948,-0.3952,-0.4001,-0.4005,-0.4009,-0.3973,-0.3973,-0.3974,-0.4,0,-0.3834,-0.3861,-0.3863,-0.3888,-0.3901,-0.3898,-0.3912,-0.3921,-0.3925,-0.3937,-0.3941,-0.3955,-0.3948,-0.3953,-0.3964,-0.3969,-0.3984,-0.3967,-0.3985,-0.3986,-0.3983,-0.4013,-0.4017,-0.4041,-0.4003,-0.4004,-0.4004,0,-0.3867,-0.3878,-0.3904,-0.3914,-0.3919,-0.3932,-0.3945,-0.3956,-0.3966,-0.3968,-0.3977,-0.3977,-0.3993,-0.3983,-0.4005,-0.3994,-0.4001,-0.4005,-0.4006,-0.4008,-0.3996,-0.4016,-0.4049,-0.4053,-0.401,-0.4009,-0.4009,0,-0.3886,-0.3907,-0.3926,-0.3931,-0.3944,-0.3952,-0.3958,-0.3967,-0.3976,-0.3987,-0.3992,-0.4005,-0.4013,-0.4023,-0.4026,-0.4018,-0.4049,-0.4039,-0.4051,-0.4051,-0.4058,-0.4058,-0.4093,-0.4063,-0.4063,-0.4062,-0.4062,0,-0.3914,-0.393,-0.3935,-0.3946,-0.3964,-0.3966,-0.3984,-0.3989,-0.3997,-0.401,-0.4008,-0.402,-0.4023,-0.4036,-0.4038,-0.4057,-0.406,-0.4062,-0.4063,-0.4063,-0.4062,-0.4068,-0.4066,-0.4063,-0.4063,-0.4063,-0.4063,0,-0.3939,-0.3942,-0.3962,-0.3972,-0.3975,-0.3988,-0.3996,-0.4008,-0.4011,-0.4027,-0.4031,-0.4037,-0.4052,-0.4056,-0.4073,-0.4075,-0.4097,-0.4096,-0.4093,-0.4093,-0.4106,-0.4105,-0.4146,-0.4152,-0.4117,-0.4118,-0.4118,0,-0.3956,-0.3969,-0.398,-0.3988,-0.3994,-0.4007,-0.4015,-0.4017,-0.4026,-0.4038,-0.4048,-0.4062,-0.4074,-0.4097,-0.4103,-0.4117,-0.4116,-0.413,-0.4118,-0.4118,-0.4117,-0.4116,-0.4117,-0.4132,-0.4132,-0.4133,-0.4133,0,-0.3987,-0.3988,-0.4,-0.4013,-0.4023,-0.4033,-0.4043,-0.4049,-0.4053,-0.4063,-0.4078,-0.4087,-0.4104,-0.4119,-0.4132,-0.4138,-0.4136,-0.4136,-0.414,-0.414,-0.4138,-0.414,-0.4099,-0.4136,-0.4135,-0.4135,-0.4135,-0.4135,-0.4009,-0.402,-0.4029,-0.4043,-0.405,-0.4059,-0.407,-0.4075,-0.4087,-0.4102,-0.4102,-0.4118,-0.4128,-0.4146,-0.4153,-0.4166,-0.4162,-0.4167,-0.4168,-0.417,-0.4171,-0.4136,-0.4168,-0.4168,-0.4168,-0.4168,-0.4168,0,-0.404,-0.4046,-0.4058,-0.4072,-0.4082,-0.4079,-0.409,-0.4099,-0.4113,-0.4122,-0.4133,-0.415,-0.4164,-0.4171,-0.4185,-0.4194,-0.4193,-0.4197,-0.4197,-0.4198,-0.4174,-0.4169,-0.4198,-0.4198,-0.4198,-0.4198,-0.4198,-0.4198,-0.4058,-0.4076,-0.4078,-0.41,-0.4106,-0.4121,-0.4127,-0.4136,-0.4143,-0.4162,-0.4174,-0.4178,-0.4187,-0.4201,-0.4213,-0.4215,-0.422,-0.4225,-0.4226,-0.4203,-0.42,-0.4197,-0.4193,-0.4226,-0.4226,-0.425,-0.425,-0.4251]},{"header":{"parameterUnit":"m.s-1","parameterCategory":1,"la1":30.2991,"la2":30.254,"lo1":-89.0895,"lo2":-89.0444,"dy":0.0017,"dx":0.0017,"nx":28,"ny":28,"refTime":"2024-06-13T21:00:00:Z","depth":0,"parameterNumber":3,"parameterNumberName":"V-component_of_WINDS"},"data":[0,0,0,0,0,0,0,0,0,0,0,0,0,0,0,0,0,0,0,0,0,0,0,0,0,0,0,0,0,0,0,0,0,0,0,0,0,0,0,0,0,0,0,0,0,0,0,0,0,0,0,0,0,0,0,0,0,0,-0.4883,-0.4883,0,-0.4848,-0.4848,-0.4847,-0.482,-0.482,-0.482,-0.482,-0.4783,-0.4783,-0.4782,0,0,0,0,0,0,0,0,0,0,0,0,0,-0.4926,-0.4925,-0.4883,-0.4882,-0.4882,-0.4848,-0.4848,-0.4847,-0.4821,-0.482,-0.482,-0.482,-0.4784,-0.4783,-0.4782,0,0,0,0,0,0,0,0,0,0,0,0,0,-0.4901,-0.4925,-0.4883,-0.4865,-0.4863,-0.4848,-0.4848,-0.4847,-0.4821,-0.482,-0.482,-0.482,-0.4784,-0.4783,-0.4782,-0.4782,0,0,-0.4778,-0.4778,0,0,0,0,0,0,0,0,-0.4902,-0.4899,-0.4868,-0.4866,-0.4864,-0.4838,-0.4849,-0.4825,-0.4821,-0.4837,-0.482,-0.4819,-0.4802,-0.4799,-0.4793,-0.478,-0.4779,-0.4778,-0.4777,-0.4777,-0.4777,0,0,0,0,0,0,0,-0.4904,-0.4901,-0.4869,-0.4867,-0.4865,-0.4858,-0.4854,-0.4845,-0.4822,-0.4835,-0.4833,-0.4829,-0.4801,-0.4795,-0.4792,-0.4778,-0.4778,-0.4777,-0.4776,-0.4776,-0.4764,-0.4764,0,0,0,0,0,0,-0.4909,-0.4902,-0.487,-0.4868,-0.4882,-0.4858,-0.4853,-0.4847,-0.4822,-0.4818,-0.483,-0.4828,-0.4797,-0.4794,-0.4791,-0.479,-0.4777,-0.4776,-0.4775,-0.4763,-0.4764,-0.4764,0,0,0,0,0,0,-0.491,-0.4906,-0.4872,-0.4885,-0.488,-0.4857,-0.485,-0.4846,-0.484,-0.4818,-0.4813,-0.4828,-0.4796,-0.4793,-0.4785,-0.4788,-0.4775,-0.4774,-0.4763,-0.4764,-0.4764,-0.4787,0,0,0,0,0,0,-0.4911,-0.4907,-0.4907,-0.4885,-0.4879,-0.4866,-0.4851,-0.4846,-0.4838,-0.4836,-0.4815,-0.4811,-0.4796,-0.4786,-0.4783,-0.4786,-0.4774,-0.4763,-0.4763,-0.4764,-0.4786,-0.4789,-0.4791,0,0,0,0,0,-0.4913,-0.4915,-0.4907,-0.4903,-0.4879,-0.4866,-0.4863,-0.4846,-0.4839,-0.4839,-0.4824,-0.4811,-0.4788,-0.4786,-0.4782,-0.4785,-0.4762,-0.4763,-0.4764,-0.4785,-0.4788,-0.4791,0,0,0,0,0,0,-0.4937,-0.4911,-0.4902,-0.4897,-0.4884,-0.4862,-0.4861,-0.4849,-0.4838,-0.4836,-0.4815,-0.481,-0.4805,-0.4794,-0.4792,-0.4784,-0.4774,-0.4774,-0.4791,-0.4794,-0.4796,-0.4798,-0.4773,0,0,0,0,0,-0.4942,-0.4934,-0.4912,-0.491,-0.4903,-0.4884,-0.4877,-0.4865,-0.4851,-0.4845,-0.483,-0.4816,-0.4806,-0.4799,-0.4788,-0.4785,-0.4779,-0.4785,-0.4787,-0.4789,-0.4789,-0.4786,-0.4788,-0.4767,-0.4767,-0.4767,0,0,-0.4952,-0.4937,-0.4933,-0.4914,-0.4903,-0.4895,-0.4879,-0.4871,-0.4865,-0.4844,-0.4835,-0.4824,-0.4807,-0.4801,-0.4798,-0.4792,-0.4794,-0.479,-0.4792,-0.4791,-0.4787,-0.4789,-0.4791,-0.4767,-0.4767,-0.4767,0,0,-0.4966,-0.4954,-0.495,-0.4939,-0.4922,-0.4908,-0.4908,-0.4887,-0.4879,-0.487,-0.4854,-0.4846,-0.4828,-0.4817,-0.4809,-0.4819,-0.4807,-0.4816,-0.4827,-0.4825,-0.4827,-0.4828,-0.4831,-0.4832,-0.4816,-0.4816,-0.4816,0,-0.498,-0.4968,-0.495,-0.4943,-0.4935,-0.4916,-0.4912,-0.4902,-0.4882,-0.4877,-0.4871,-0.4848,-0.4836,-0.4827,-0.4829,-0.4824,-0.4822,-0.4818,-0.4828,-0.4829,-0.483,-0.4833,-0.4834,-0.4818,-0.4817,-0.4817,-0.4817,0,-0.4986,-0.4978,-0.4977,-0.4958,-0.495,-0.4945,-0.4926,-0.492,-0.4909,-0.4897,-0.4888,-0.4872,-0.4857,-0.4855,-0.4843,-0.4844,-0.4841,-0.4832,-0.4821,-0.4834,-0.4836,-0.4837,-0.4819,-0.4819,-0.4818,-0.4818,0,0,-0.5013,-0.4985,-0.4985,-0.4977,-0.4956,-0.495,-0.4944,-0.493,-0.4925,-0.4912,-0.4906,-0.4892,-0.4883,-0.4874,-0.4861,-0.4859,-0.4868,-0.485,-0.4849,-0.4854,-0.4867,-0.4874,-0.4875,-0.486,-0.486,-0.486,-0.4868,0,-0.5023,-0.5012,-0.4996,-0.4989,-0.4981,-0.4963,-0.4958,-0.4944,-0.4933,-0.4924,-0.4911,-0.4901,-0.489,-0.4885,-0.4882,-0.4867,-0.487,-0.4867,-0.4854,-0.4854,-0.4858,-0.4877,-0.4884,-0.4892,-0.4869,-0.4869,-0.4869,0,-0.5034,-0.5022,-0.5015,-0.4995,-0.4991,-0.4987,-0.4973,-0.4965,-0.495,-0.4941,-0.4931,-0.4918,-0.491,-0.4901,-0.489,-0.4888,-0.4882,-0.4874,-0.4874,-0.4872,-0.4862,-0.4874,-0.4895,-0.4896,-0.4871,-0.4871,-0.487,0,-0.5054,-0.5036,-0.503,-0.5023,-0.5,-0.4997,-0.4988,-0.4972,-0.4965,-0.4953,-0.4947,-0.4935,-0.4927,-0.4918,-0.4901,-0.4896,-0.4892,-0.4881,-0.4884,-0.4885,-0.4884,-0.4884,-0.4903,-0.4881,-0.4881,-0.4881,-0.4881,0,-0.5067,-0.5063,-0.5039,-0.5034,-0.503,-0.5011,-0.5007,-0.4995,-0.4982,-0.4975,-0.4959,-0.4952,-0.4931,-0.4922,-0.4909,-0.4902,-0.4899,-0.4892,-0.4888,-0.4893,-0.4894,-0.4888,-0.4887,-0.4881,-0.4881,-0.4881,-0.4881,0,-0.5088,-0.5072,-0.5063,-0.5043,-0.5037,-0.5035,-0.5017,-0.5012,-0.4999,-0.4991,-0.4988,-0.4968,-0.4957,-0.4939,-0.4923,-0.4914,-0.4909,-0.4904,-0.4915,-0.4912,-0.4916,-0.4916,-0.4932,-0.4933,-0.4911,-0.4911,-0.4911,0,-0.5097,-0.5094,-0.5073,-0.5067,-0.5058,-0.5049,-0.5042,-0.5024,-0.5017,-0.4999,-0.4996,-0.4984,-0.4973,-0.4957,-0.4941,-0.4928,-0.4922,-0.4928,-0.492,-0.4925,-0.4921,-0.4922,-0.4921,-0.493,-0.493,-0.4931,-0.4931,0,-0.5115,-0.5107,-0.5097,-0.5084,-0.5076,-0.5065,-0.5053,-0.5049,-0.5028,-0.5021,-0.501,-0.5002,-0.4985,-0.4973,-0.4959,-0.4948,-0.4936,-0.4934,-0.4934,-0.4938,-0.4944,-0.4941,-0.4919,-0.4933,-0.4933,-0.4933,-0.4933,-0.4933,-0.513,-0.5126,-0.511,-0.51,-0.5089,-0.5079,-0.5073,-0.506,-0.505,-0.5036,-0.5026,-0.5015,-0.5,-0.4979,-0.4969,-0.496,-0.4955,-0.4955,-0.4955,-0.4955,-0.4957,-0.4946,-0.4958,-0.4958,-0.4958,-0.4958,-0.4957,0,-0.5146,-0.5135,-0.5126,-0.511,-0.5102,-0.5091,-0.5078,-0.5071,-0.5062,-0.5049,-0.5039,-0.5026,-0.5014,-0.4998,-0.4985,-0.4981,-0.4975,-0.4978,-0.4978,-0.4976,-0.4962,-0.4964,-0.4983,-0.4983,-0.4983,-0.4983,-0.4983,-0.4983,-0.5153,-0.5146,-0.5136,-0.5124,-0.5113,-0.5103,-0.5096,-0.5086,-0.5075,-0.5062,-0.5052,-0.5041,-0.5027,-0.5013,-0.5001,-0.4997,-0.4993,-0.4997,-0.4991,-0.4979,-0.4977,-0.4974,-0.4975,-0.4997,-0.4997,-0.5005,-0.5005,-0.5005]}]]